2021-022K

Last updated on Thu Apr 22 2021 00:02:03 GMT+0000 (Coordinated Universal Time)

1 47941U 21022K 21111.44287824 .00000324 00000-0 26624-4 0 9990 2 47941 97.5626 14.7346 0022464 141.8512 333.8073 15.05592050 4471
UTC large
Height (km)
Speed (km/s)
/
Latitude / Longitude
Inclination (degrees)
Orbital Period (minutes)
Azimuth
Elevation
Range (km)
Doppler Factor

Next 0 passes for location: London (51.5072 / 0.1276)

Sorry there are no passes over London.